Wind_Speed
39 39 39 38 38 38 38 38 39 39 39 39 38 38 39 40 40 41 41 42 42 42 42 42 41 41 41 41 41 40 40 41 41 41 41 41 40 40
40 40 40 39 39 39 40 40 40 41 41 40 39 39 39 41 42 42 42 42 42 42 42 42 42 41 42 42 42 41 41 41 41 41 41 40 39 38
41 41 41 41 40 40 41 41 41 41 42 42 42 41 41 41 42 42 43 42 43 42 42 42 42 42 42 42 41 42 41 41 40 40 40 39 39 39
42 42 42 42 42 41 42 42 42 41 42 42 42 42 42 42 42 42 42 41 41 42 42 41 40 40 40 40 40 41 40 39 38 38 39 39 39 39
43 42 42 41 40 40 41 42 42 42 41 42 42 42 42 42 42 42 41 40 41 41 41 40 40 39 39 39 38 38 38 37 37 37 37 38 38 38
43 42 42 42 41 40 41 41 41 42 41 41 41 40 40 39 40 40 41 40 40 40 40 40 39 38 38 38 37 36 36 36 36 36 37 37 37 37
43 42 42 42 42 41 40 39 40 41 41 40 40 39 39 38 39 39 40 40 40 40 39 38 37 37 37 36 36 36 35 35 36 36 37 37 36 35
41 42 43 42 42 41 41 40 40 40 40 40 40 39 39 39 39 39 39 39 39 39 38 37 36 36 36 35 35 35 35 35 35 35 35 35 34 33
41 42 42 42 42 41 41 40 40 39 39 39 38 38 39 39 39 38 38 38 37 37 36 35 35 35 35 35 35 35 35 35 35 34 34 34 33 32
42 41 41 41 41 40 40 39 38 37 37 37 37 38 38 38 38 37 37 37 36 36 35 34 34 34 35 34 34 35 35 35 34 33 33 33 33 32
40 40 40 40 39 39 38 38 37 36 36 37 37 37 37 38 38 38 37 36 36 36 36 35 34 34 34 33 33 34 33 33 33 33 33 33 32 33
38 38 38 38 39 39 38 38 37 36 36 37 37 37 37 37 38 38 38 36 35 35 35 34 33 33 33 33 33 32 33 33 32 33 33 32 32 32
36 36 37 37 37 38 38 38 37 36 37 36 36 36 36 36 36 36 37 37 36 35 34 33 33 33 33 32 32 32 32 32 32 32 32 31 31 31
35 35 35 35 36 36 37 37 36 35 35 35 35 35 36 36 36 36 37 37 36 35 35 34 33 34 33 33 33 33 33 32 32 32 31 31 31 30
35 34 34 34 35 36 36 36 36 36 36 35 35 35 35 35 35 35 35 35 36 35 35 35 34 34 33 33 32 32 32 32 31 31 30 30 29 29
34 33 33 34 34 34 35 35 35 35 36 36 35 34 34 34 33 33 34 34 35 35 35 35 35 34 33 33 32 32 31 31 30 29 30 30 29 29
33 33 33 33 33 33 34 34 34 34 34 35 35 34 33 33 33 33 33 33 34 34 34 34 34 33 33 33 32 32 31 30 29 27 27 27 27 27
33 33 33 33 33 34 34 34 34 33 34 34 34 34 33 33 32 32 32 32 32 33 33 33 33 33 32 33 32 30 30 29 28 27 27 26 25 25
34 34 33 33 33 33 33 33 33 33 33 33 33 33 33 33 32 32 32 31 31 31 31 31 32 32 32 32 31 29 29 28 27 27 27 26 25 24
32 32 32 31 31 31 32 32 33 33 33 32 32 32 32 32 32 32 31 31 31 30 30 29 30 31 31 30 29 28 28 27 27 26 26 26 25 24
31 31 31 31 31 30 31 31 31 32 31 31 31 31 31 31 31 30 29 29 29 29 29 28 28 28 28 28 27 27 27 27 27 26 25 25 25 24
30 31 31 30 30 30 30 30 30 31 31 30 30 30 31 30 30 29 28 28 28 28 28 28 27 27 26 26 26 26 25 25 25 25 24 24 24 23
29 29 29 29 30 30 30 30 30 30 30 30 30 29 29 29 29 28 27 26 26 26 26 26 26 26 26 26 25 24 24 24 23 23 23 22 22 21
Wind_Direction
262 265 266 267 268 267 267 267 266 266 266 268 269 271 273 275 276 278 279 280 282 283 284 284 284 283 282 282 282 283 284 284 284 283 282 283 283 283
262 264 265 266 267 268 267 267 268 267 267 268 270 272 275 276 277 278 279 280 282 282 282 283 283 282 282 282 282 283 284 284 283 282 282 281 283 284
261 263 264 265 267 268 267 267 268 269 268 269 270 272 275 277 278 279 279 280 281 283 283 283 283 282 282 282 282 283 283 284 283 282 281 281 282 282
261 262 263 265 266 268 268 268 268 269 270 270 271 272 274 277 278 279 280 281 282 283 283 282 282 282 282 282 282 283 283 282 282 281 282 282 283 284
262 262 262 264 266 268 267 267 268 269 270 271 272 272 273 276 277 278 280 281 283 283 283 282 281 282 282 283 284 283 282 281 281 282 282 282 282 283
262 263 263 264 266 267 268 269 269 269 269 271 272 271 272 275 278 278 279 281 282 283 282 282 281 281 282 283 283 283 283 282 282 282 282 282 282 283
262 262 263 265 266 267 269 270 270 269 270 271 272 271 272 275 277 279 280 281 282 282 281 280 280 281 282 282 282 282 282 282 283 283 283 282 282 282
261 262 263 265 266 267 267 269 269 269 270 270 272 272 273 273 276 278 279 280 280 281 280 280 281 281 281 280 280 281 282 282 283 283 283 282 280 280
262 262 263 263 263 264 266 267 269 269 269 271 272 272 273 273 275 277 278 278 279 279 278 279 280 281 280 280 280 279 281 283 283 283 283 281 278 279
262 262 262 262 262 263 265 266 267 268 269 271 272 273 274 275 275 275 276 276 277 277 277 278 279 280 280 280 281 282 282 282 281 282 282 281 278 278
263 262 262 262 262 263 264 264 265 267 269 271 271 273 275 276 276 274 274 275 274 275 277 277 278 279 280 281 282 283 282 281 281 282 282 282 280 278
263 263 262 261 260 261 261 263 264 267 269 271 271 273 275 276 275 274 273 273 275 276 276 276 278 278 280 281 282 282 282 282 283 283 282 281 280 278
263 263 263 262 262 261 261 262 263 265 267 269 271 272 273 274 274 274 273 273 273 275 275 275 277 278 279 280 282 282 282 281 281 281 282 281 280 279
262 262 263 263 262 261 261 261 262 263 265 268 270 271 272 273 273 273 273 273 273 274 275 276 277 279 279 279 281 282 281 281 280 280 279 280 280 279
261 262 263 263 262 261 261 262 262 264 266 268 270 271 272 273 274 273 273 273 272 273 274 275 276 278 278 279 280 281 281 281 280 279 279 279 280 279
261 261 263 263 263 262 262 262 263 265 266 267 269 271 271 271 272 272 272 271 271 271 272 272 274 275 277 278 278 279 280 280 279 278 279 279 279 278
261 261 263 264 264 263 263 264 265 265 267 268 269 270 270 270 270 271 271 271 270 270 269 269 272 274 275 277 277 278 279 278 277 275 277 279 279 279
261 262 264 265 265 264 263 263 264 265 266 268 268 268 268 268 269 270 270 270 270 270 270 270 272 273 275 276 277 278 277 275 275 275 276 278 279 281
261 262 263 264 264 263 263 263 263 265 267 268 268 268 268 268 269 270 270 270 270 270 270 271 272 273 275 276 277 277 277 275 274 275 276 278 279 280
259 261 262 262 263 263 264 264 264 265 266 268 268 268 268 269 269 271 271 271 270 269 270 271 273 274 276 277 277 277 276 276 276 276 276 277 278 277
257 259 260 261 262 263 264 264 265 265 266 268 268 269 269 268 270 271 271 271 270 270 270 271 272 274 276 276 276 277 276 276 277 277 275 273 273 273
258 260 260 261 262 264 265 265 266 266 266 267 268 269 268 268 270 271 271 271 269 269 269 269 269 271 274 275 278 278 275 274 274 275 275 273 270 271
260 260 261 262 263 265 265 266 266 265 265 266 267 268 267 267 268 269 269 270 270 269 268 268 270 272 274 276 277 275 272 273 274 275 275 273 270 270
Height
5681 5681 5681 5681 5681 5681 5681 5681 5682 5682 5684 5684 5684 5683 5682 5681 5680 5679 5677 5676 5674 5672 5669 5667 5665 5662 5659 5657 5655 5653 5651 5648 5646 5644 5642 5640 5638 5636
5670 5671 5671 5671 5671 5671 5671 5671 5671 5672 5672 5674 5673 5672 5671 5671 5669 5668 5666 5664 5662 5660 5658 5655 5653 5651 5648 5646 5644 5642 5640 5637 5635 5633 5631 5629 5628 5626
5660 5660 5661 5661 5661 5661 5661 5661 5661 5661 5661 5662 5662 5661 5660 5659 5658 5656 5654 5652 5650 5648 5646 5644 5642 5639 5637 5635 5633 5631 5629 5626 5624 5622 5620 5619 5617 5616
5649 5650 5650 5650 5650 5650 5651 5651 5651 5650 5650 5650 5650 5650 5649 5648 5646 5645 5643 5641 5639 5637 5635 5632 5630 5628 5626 5624 5622 5620 5618 5616 5614 5612 5611 5609 5608 5605
5638 5639 5640 5640 5640 5640 5640 5640 5639 5639 5639 5638 5638 5638 5638 5637 5635 5633 5631 5629 5627 5625 5623 5621 5619 5617 5615 5613 5611 5609 5607 5606 5604 5602 5600 5599 5597 5595
5627 5628 5629 5629 5629 5629 5629 5629 5628 5628 5628 5627 5627 5627 5627 5625 5624 5622 5620 5618 5616 5614 5612 5611 5609 5607 5605 5603 5601 5599 5597 5595 5593 5592 5590 5589 5587 5586
5615 5617 5617 5618 5618 5618 5618 5618 5618 5617 5617 5616 5616 5616 5616 5615 5613 5611 5610 5608 5606 5604 5602 5600 5598 5597 5595 5592 5590 5589 5587 5585 5584 5582 5580 5579 5577 5576
5604 5605 5606 5606 5607 5607 5607 5607 5607 5606 5606 5605 5605 5605 5604 5604 5602 5601 5599 5598 5596 5594 5591 5590 5588 5586 5585 5583 5581 5579 5577 5575 5574 5572 5570 5569 5568 5566
5592 5593 5594 5595 5595 5596 5596 5596 5596 5595 5595 5595 5594 5593 5593 5593 5592 5590 5588 5586 5585 5583 5581 5580 5578 5576 5575 5573 5571 5569 5567 5566 5564 5562 5561 5559 5558 5557
5580 5581 5582 5583 5584 5584 5584 5585 5585 5585 5585 5584 5584 5583 5582 5581 5580 5579 5578 5576 5575 5573 5571 5570 5568 5567 5565 5563 5561 5560 5558 5556 5555 5553 5552 5551 5549 5548
5569 5570 5570 5571 5573 5573 5574 5574 5575 5575 5574 5573 5573 5572 5571 5570 5569 5568 5567 5566 5565 5564 5562 5560 5559 5557 5555 5554 5552 5551 5549 5547 5546 5545 5543 5542 5541 5539
5558 5559 5559 5560 5561 5561 5562 5563 5564 5564 5564 5563 5563 5562 5561 5559 5558 5557 5556 5555 5554 5554 5552 5551 5549 5547 5547 5545 5543 5542 5540 5538 5537 5536 5535 5533 5532 5531
5547 5548 5549 5550 5550 5551 5551 5552 5553 5553 5553 5552 5552 5551 5550 5549 5548 5547 5546 5545 5544 5543 5542 5541 5540 5538 5537 5536 5535 5533 5531 5530 5529 5527 5526 5524 5523 5522
5537 5538 5538 5539 5539 5540 5541 5541 5542 5541 5541 5541 5541 5540 5540 5539 5538 5536 5535 5534 5534 5533 5532 5531 5530 5529 5528 5527 5526 5524 5522 5521 5520 5519 5517 5516 5514 5513
5526 5527 5528 5528 5528 5529 5530 5530 5531 5531 5531 5530 5530 5530 5530 5528 5527 5526 5525 5524 5524 5523 5522 5522 5521 5519 5518 5517 5516 5515 5513 5512 5511 5510 5508 5507 5506 5505
5516 5517 5518 5518 5518 5519 5519 5520 5520 5520 5520 5520 5520 5520 5519 5518 5517 5516 5515 5514 5514 5513 5513 5512 5511 5510 5509 5508 5507 5506 5504 5503 5502 5501 5500 5499 5497 5496
5507 5507 5508 5508 5509 5509 5509 5510 5510 5510 5510 5510 5510 5509 5509 5508 5507 5506 5505 5504 5504 5504 5503 5502 5501 5500 5499 5499 5498 5496 5495 5494 5493 5492 5491 5490 5489 5488
5497 5497 5498 5498 5499 5499 5499 5499 5500 5500 5500 5500 5499 5499 5499 5498 5497 5496 5495 5495 5494 5494 5494 5493 5492 5491 5490 5489 5488 5487 5486 5485 5484 5484 5483 5482 5481 5480
5487 5488 5488 5488 5489 5489 5489 5489 5490 5490 5490 5490 5490 5489 5489 5488 5487 5487 5486 5485 5485 5485 5484 5483 5483 5481 5481 5481 5480 5478 5477 5476 5476 5476 5475 5475 5474 5474
5477 5478 5478 5479 5479 5479 5479 5480 5480 5480 5480 5480 5480 5479 5479 5479 5478 5478 5477 5476 5476 5475 5475 5475 5474 5473 5472 5472 5471 5471 5469 5468 5468 5468 5468 5467 5467 5466
5468 5468 5469 5469 5469 5470 5470 5470 5470 5470 5470 5470 5470 5470 5470 5470 5469 5469 5468 5468 5467 5467 5467 5467 5466 5465 5464 5463 5463 5463 5462 5461 5460 5460 5460 5460 5460 5460
5458 5459 5459 5460 5460 5460 5461 5461 5461 5461 5461 5461 5461 5461 5461 5461 5461 5460 5460 5459 5459 5459 5458 5458 5458 5457 5457 5456 5456 5456 5455 5454 5453 5453 5453 5452 5452 5453
5449 5450 5450 5451 5451 5451 5451 5452 5452 5452 5452 5452 5453 5452 5452 5452 5452 5452 5452 5451 5451 5451 5451 5450 5450 5449 5449 5449 5448 5448 5448 5447 5447 5446 5446 5445 5445 5446